Location: Belfast
(54.5830°N, 5.9330°W)
Time: 12:49:38
(UTC+01:00)

ISS - Pass Details

Date: 21 May 2018
Orbit: 402 x 407 km, 51.6° (Epoch: 20 May)

Event Time Altitude Azimuth Distance (km) Brightness Sun altitude
Rises 22:49:33 0° 216° (SW) 2,312 -0.2 -8.5°
Reaches altitude 10° 22:52:00 10° 198° (SSW) 1,455 -1.4 -8.7°
Maximum altitude 22:54:24 19° 150° (SSE) 1,027 -2.4 -8.9°
Drops below altitude 10° 22:56:49 10° 102° (ESE) 1,459 -1.4 -9.0°
Sets 22:59:16 0° 84° (E) 2,321 -0.3 -9.2°
